Weather History for Harvey, ND

Change the Weather History Date:

Monday, October 31, 2011

  Actual Average (KRUG) Record (KRUG)
Temperature  
Mean Temperature 46 °F -  
Max Temperature 60 °F 48 °F 68 °F (1967)
Min Temperature 32 °F 27 °F -5 °F (1991)
Degree Days  
Heating Degree Days 19    
Moisture  
Dew Point 35 °F    
Average Humidity 57    
Maximum Humidity 87    
Minimum Humidity 41    
Precipitation  
Precipitation 0.00 in - - ()
Sea Level Pressure  
Sea Level Pressure 29.70 in    
Wind  
Wind Speed 10 mph (WSW)    
Max Wind Speed 15 mph    
Max Gust Speed 22 mph    
Visibility 10 miles    
Events      
Averages and records for this station are not official NWS values.
T = Trace of Precipitation, MM = Missing Value Source: NWS Daily Summary

Daily Weather History Graph

Daily Weather History Graph

Search for Another Location

Airport:

Trip Planner

Search our weather history database for the weather conditions in past years. The results will help you decide how hot, cold, wet, or windy it might be!

Date:

Astronomy

Oct. 31, 2011 Rise Set
Actual Time 8:22 AM CDT 6:23 PM CDT
Civil Twilight 7:50 AM CDT 6:55 PM CDT
Nautical Twilight 7:13 AM CDT 7:32 PM CDT
Astronomical Twilight 6:37 AM CDT 8:08 PM CDT
Moon 1:40 PM CDT (10/31) 10:53 PM CDT (10/31)
Length of Visible Light 11h 05m
Length of Day
10h 01m
Waxing Crescent, 30% of the Moon is Illuminated
Oct 31
Waxing Crescent
Nov 2
First Quarter
Nov 10
Full
Nov 18
Last Quarter
Nov 25
New

Hourly Weather History & Observations

Time (CDT) Temp. Windchill Dew Point Humidity Pressure Visibility Wind Dir Wind Speed Gust Speed Precip Events Conditions
1:15 AM 32.0 °F 26.4 °F 28.4 °F 87% 29.89 in 10.0 mi SSE 5.8 mph - N/A   Clear
1:55 AM 32.0 °F 25.6 °F 28.4 °F 87% 29.89 in 10.0 mi South 6.9 mph - N/A   Clear
2:35 AM 32.0 °F 24.8 °F 28.4 °F 87% 29.87 in 10.0 mi South 8.1 mph - N/A   Clear
7:35 AM 35.6 °F 27.1 °F 26.6 °F 70% 29.73 in 10.0 mi South 12.7 mph 19.6 mph N/A   Clear
8:15 AM 37.4 °F 28.9 °F 26.6 °F 65% 29.73 in 10.0 mi South 13.8 mph - N/A   Clear
8:35 AM 39.2 °F 30.8 °F 28.4 °F 65% 29.72 in 10.0 mi SSW 15.0 mph 18.4 mph N/A   Clear
8:55 AM 39.2 °F 32.0 °F 28.4 °F 65% 29.72 in 10.0 mi SSW 11.5 mph 17.3 mph N/A   Clear
9:35 AM 42.8 °F 35.8 °F 28.4 °F 57% 29.71 in 10.0 mi SSW 13.8 mph 19.6 mph N/A   Clear
9:55 AM 44.6 °F 38.1 °F 28.4 °F 53% 29.71 in 10.0 mi SW 13.8 mph 21.9 mph N/A   Clear
10:15 AM 46.4 °F 40.7 °F 30.2 °F 53% 29.70 in 10.0 mi SSW 12.7 mph - N/A   Clear
10:35 AM 46.4 °F 41.1 °F 30.2 °F 53% 29.70 in 10.0 mi SW 11.5 mph - N/A   Clear
10:55 AM 50.0 °F - 32.0 °F 50% 29.69 in 10.0 mi SSW 11.5 mph 17.3 mph N/A   Clear
11:15 AM 50.0 °F - 32.0 °F 50% 29.69 in 10.0 mi SW 11.5 mph - N/A   Clear
11:35 AM 53.6 °F - 32.0 °F 44% 29.69 in 10.0 mi WSW 12.7 mph - N/A   Clear
11:55 AM 55.4 °F - 32.0 °F 41% 29.68 in 10.0 mi WSW 12.7 mph - N/A   Clear
12:15 PM 57.2 °F - 33.8 °F 41% 29.67 in 10.0 mi WSW 11.5 mph - N/A   Clear
12:35 PM 57.2 °F - 33.8 °F 41% 29.67 in 10.0 mi WSW 13.8 mph - N/A   Clear
12:55 PM 57.2 °F - 35.6 °F 44% 29.66 in 10.0 mi WSW 13.8 mph - N/A   Clear
1:15 PM 57.2 °F - 35.6 °F 44% 29.66 in 10.0 mi WSW 13.8 mph - N/A   Clear
1:35 PM 59.0 °F - 35.6 °F 42% 29.65 in 10.0 mi WSW 15.0 mph - N/A   Clear
1:55 PM 59.0 °F - 35.6 °F 42% 29.64 in 10.0 mi West 11.5 mph - N/A   Partly Cloudy
2:15 PM 59.0 °F - 37.4 °F 45% 29.64 in 10.0 mi West 9.2 mph - N/A   Scattered Clouds
2:35 PM 59.0 °F - 37.4 °F 45% 29.63 in 10.0 mi WSW 10.4 mph - N/A   Partly Cloudy
2:55 PM 60.8 °F - 39.2 °F 45% 29.63 in 10.0 mi West 11.5 mph 18.4 mph N/A   Partly Cloudy
3:15 PM 60.8 °F - 39.2 °F 45% 29.63 in 10.0 mi West 8.1 mph - N/A   Partly Cloudy
3:35 PM 60.8 °F - 39.2 °F 45% 29.63 in 10.0 mi WSW 6.9 mph - N/A   Clear
3:55 PM 59.0 °F - 39.2 °F 48% 29.64 in 10.0 mi WNW 3.5 mph - N/A   Clear
4:15 PM 59.0 °F - 41.0 °F 51% 29.65 in 10.0 mi NW 5.8 mph - N/A   Mostly Cloudy
4:35 PM 59.0 °F - 41.0 °F 51% 29.65 in 10.0 mi WNW 5.8 mph - N/A   Scattered Clouds
4:55 PM 57.2 °F - 41.0 °F 55% 29.65 in 10.0 mi West 4.6 mph - N/A   Clear
5:15 PM 53.6 °F - 39.2 °F 58% 29.66 in 10.0 mi WNW 6.9 mph - N/A   Clear
5:35 PM 53.6 °F - 39.2 °F 58% 29.66 in 10.0 mi WNW 4.6 mph - N/A   Partly Cloudy
5:55 PM 50.0 °F - 39.2 °F 66% 29.67 in 10.0 mi WSW 8.1 mph - N/A   Clear
6:35 PM 50.0 °F - 39.2 °F 66% 29.69 in 10.0 mi West 6.9 mph - N/A   Clear
6:55 PM 50.0 °F - 39.2 °F 66% 29.69 in 10.0 mi West 11.5 mph - N/A   Clear
7:15 PM 51.8 °F - 39.2 °F 62% 29.70 in 10.0 mi WNW 12.7 mph - N/A   Partly Cloudy
8:15 PM 50.0 °F - 39.2 °F 66% 29.71 in 10.0 mi WNW 10.4 mph - N/A   Clear
11:15 PM 42.8 °F 35.4 °F 35.6 °F 76% 29.79 in 10.0 mi NW 15.0 mph - N/A   Clear
11:55 PM 41.0 °F 33.5 °F 35.6 °F 81% 29.81 in 10.0 mi NW 13.8 mph 19.6 mph N/A   Clear